Tracking 30923 objects as of 1-Jul-2025
HD Live streaming from Space Station
objects crossing your sky now

OBJECT E

Track OBJECT E now!
10-day predictions


NORAD ID: 61231
Int'l Code: 2024-173E
Perigee: 514.3 km
Apogee: 516.6 km
Inclination: 97.4 °
Period: 94.8 minutes
Semi major axis: 6886 km
RCS: Unknown
Launch date: September 24, 2024
Source: People's Republic of China (PRC)
Launch site: Yellow Sea Launch Area, China (YSLA)
Your satellite tracking list
USA 72
Track 1 satellite(s)




NASA's NSSDC Master Catalog

Two Line Element Set (TLE):
1 61231U 24173E   25181.89061694  .00002079  00000-0  10210-3 0  9995
2 61231  97.4117 255.6638 0001676  89.3583 270.7844 15.19170395 42420
Source of the keplerian elements: AFSPC